Preview of NWS' New Version of Forecast
This preview is not operational and should not be used for support decisions.

Regional Weather Roundup (RWR)

Issued by National Weather Service (NWS)

                            
000
ASCA42 TJSJ 261210
RWRPR 
PUERTO RICO/U.S. VIRGIN ISLANDS HOURLY WEATHER ROUNDUP
NATIONAL WEATHER SERVICE SAN JUAN PR
800 AM AST TUE MAR 26 2019

PRZ001>002-007>008-010-261300-
PUERTO RICO
  
CITY           SKY/WX    TMP DP  RH WIND       PRES   REMARKS
SAN JUAN LMM   MOSUNNY   79  68  69 CALM      29.98R                  
AGUADILLA      SUNNY     73  66  78 CALM      29.98R                  
CEIBA          MOSUNNY   81  72  74 SE10      29.99R                  
$$

VIZ001>002-261300-
U.S. VIRGIN ISLANDS
  
CITY           SKY/WX    TMP DP  RH WIND       PRES   REMARKS
CHARLOTTE AMA  PTSUNNY   79  72  78 SE12      29.98R                  
$$

HOURLY WEATHER ROUNDUP FOR THE NEWS MEDIA
  
CITY           SKY/WX    TMP DP  RH WIND       PRES   REMARKS
ORLANDO        FAIR      65  62  90 W7        30.03R                  
NEW YORK       FAIR      33   8  35 N18       30.21R WCI  22          
NEWARK         FAIR      33   7  33 N13       30.23R WCI  24          
CHICAGO        FAIR      26  19  74 N5        30.43R WCI  20          
HARTFORD       FAIR      33  22  63 VRB7      30.19R WCI  27          
BOSTON         FAIR      35   3  26 N13       30.23R WCI  26          
DALLAS         CLEAR     52  45  77 N5        30.33R                  
PHILADELPHIA   FAIR      33   7  33 N14       30.23R WCI  23          
LOS ANGELES    PTCLDY    53  50  89 NE3       30.00F                  
WASHINGTON DC  FAIR      35  13  40 N13G22    30.24R WCI  26